When you browse on this site, cookies collect data to enhance your experience and personalize the content and advertising you see.
Visit our Privacy Policy to learn more. By continuing to use the site, you agree to this use of cookies and data.
  • In Czech Republic
  • List of Countries
  • For 7 days
  • Water Temperature
  • Satellite Maps
  • Weather Map
  • Weather Widgets
  • user-avatar
    Login

    Hourly Weather Hrazdan

    Today, 24 May, Friday

    Time Temperature Precipitation Wind Pressure Humidity
    00:00 +10°C° 0.3 mm 2 mps 612 mmHg 86%
    01:00 +10°C° 0.1 mm 2 mps 612 mmHg 86%
    02:00 +10°C° 0.1 mm 2 mps 612 mmHg 86%
    03:00 +9°C° 0 mm 2 mps 612 mmHg 87%
    04:00 +10°C° 0.1 mm 2 mps 612 mmHg 86%
    05:00 +10°C° 0.1 mm 2 mps 612 mmHg 85%
    06:00 +11°C° 0.1 mm 3 mps 612 mmHg 84%
    07:00 +12°C° 0.1 mm 3 mps 613 mmHg 76%
    08:00 +14°C° 0.1 mm 4 mps 613 mmHg 68%
    09:00 +17°C° 0.1 mm 4 mps 614 mmHg 60%
    10:00 +17°C° 0.2 mm 5 mps 614 mmHg 59%
    11:00 +19°C° 0.2 mm 5 mps 614 mmHg 57%
    12:00 +19°C° 0.2 mm 5 mps 614 mmHg 56%
    13:00 +19°C° 1 mm 5 mps 614 mmHg 57%
    14:00 +19°C° 1 mm 5 mps 614 mmHg 59%
    15:00 +19°C° 1 mm 4 mps 613 mmHg 60%
    16:00 +19°C° 1.3 mm 3 mps 613 mmHg 64%
    17:00 +18°C° 1.3 mm 2 mps 613 mmHg 67%
    18:00 +18°C° 1.3 mm 1 mps 613 mmHg 71%
    19:00 +16°C° 0.5 mm 1 mps 613 mmHg 74%
    20:00 +14°C° 0.5 mm 1 mps 613 mmHg 77%
    21:00 +13°C° 0.5 mm 1 mps 613 mmHg 80%
    22:00 +13°C° 0.1 mm 1 mps 613 mmHg 77%
    23:00 +13°C° 0.1 mm 1 mps 613 mmHg 74%

    Tomorrow, 25 May, Saturday

    Time Temperature Precipitation Wind Pressure Humidity
    00:00 +13°C° 0.1 mm 1 mps 614 mmHg 71%
    01:00 +12°C° 0 mm 1 mps 613 mmHg 70%
    02:00 +12°C° 0 mm 1 mps 613 mmHg 68%
    03:00 +10°C° 0 mm 2 mps 613 mmHg 67%
    04:00 +12°C° 0 mm 2 mps 614 mmHg 65%
    05:00 +12°C° 0 mm 2 mps 614 mmHg 64%
    06:00 +13°C° 0 mm 2 mps 614 mmHg 62%
    07:00 +15°C° 0 mm 2 mps 615 mmHg 56%
    08:00 +18°C° 0 mm 3 mps 615 mmHg 49%
    09:00 +20°C° 0 mm 3 mps 616 mmHg 43%
    10:00 +21°C° 0 mm 4 mps 616 mmHg 40%
    11:00 +22°C° 0 mm 5 mps 616 mmHg 38%
    12:00 +23°C° 0 mm 6 mps 616 mmHg 35%
    13:00 +23°C° 0 mm 5 mps 616 mmHg 37%
    14:00 +23°C° 0 mm 5 mps 616 mmHg 39%
    15:00 +22°C° 0 mm 5 mps 615 mmHg 41%
    16:00 +21°C° 0.4 mm 4 mps 614 mmHg 49%
    17:00 +19°C° 0.4 mm 3 mps 614 mmHg 56%
    18:00 +18°C° 0.4 mm 3 mps 613 mmHg 63%
    19:00 +16°C° 0.5 mm 2 mps 613 mmHg 65%
    20:00 +15°C° 0.5 mm 2 mps 613 mmHg 67%
    21:00 +13°C° 0.5 mm 2 mps 612 mmHg 68%
    22:00 +12°C° 0.1 mm 2 mps 612 mmHg 70%
    23:00 +12°C° 0.1 mm 1 mps 612 mmHg 71%

    Day after tomorrow, 26 May, Sunday

    Time Temperature Precipitation Wind Pressure Humidity
    00:00 +11°C° 0.1 mm 1 mps 612 mmHg 72%
    01:00 +11°C° 0 mm 1 mps 612 mmHg 72%
    02:00 +11°C° 0 mm 1 mps 612 mmHg 73%
    03:00 +11°C° 0 mm 1 mps 612 mmHg 73%
    04:00 +11°C° 0 mm 1 mps 612 mmHg 72%
    05:00 +12°C° 0 mm 1 mps 612 mmHg 71%
    06:00 +13°C° 0 mm 1 mps 612 mmHg 70%
    07:00 +15°C° 0 mm 2 mps 613 mmHg 63%
    08:00 +17°C° 0 mm 2 mps 614 mmHg 55%
    09:00 +19°C° 0 mm 3 mps 614 mmHg 48%
    10:00 +20°C° 0 mm 3 mps 614 mmHg 45%
    11:00 +21°C° 0 mm 4 mps 614 mmHg 42%
    12:00 +22°C° 0 mm 5 mps 615 mmHg 39%
    13:00 +22°C° 0 mm 5 mps 614 mmHg 39%
    14:00 +22°C° 0 mm 5 mps 614 mmHg 39%
    15:00 +23°C° 0 mm 5 mps 614 mmHg 38%
    16:00 +21°C° 0.4 mm 4 mps 614 mmHg 46%
    17:00 +20°C° 0.4 mm 3 mps 613 mmHg 53%
    18:00 +19°C° 0.4 mm 2 mps 613 mmHg 61%
    19:00 +16°C° 0.8 mm 2 mps 613 mmHg 68%
    20:00 +14°C° 0.8 mm 2 mps 613 mmHg 76%
    21:00 +12°C° 0.8 mm 2 mps 612 mmHg 84%
    22:00 +10°C° 0.3 mm 2 mps 612 mmHg 86%
    23:00 +10°C° 0.3 mm 2 mps 612 mmHg 89%

    27 May, Monday

    Time Temperature Precipitation Wind Pressure Humidity
    00:00 +9°C° 0.3 mm 2 mps 612 mmHg 92%
    01:00 +9°C° 0.1 mm 2 mps 612 mmHg 92%
    02:00 +9°C° 0.1 mm 1 mps 612 mmHg 92%
    03:00 +9°C° 0.1 mm 1 mps 612 mmHg 92%
    04:00 +10°C° 0 mm 1 mps 613 mmHg 89%
    05:00 +10°C° 0 mm 1 mps 613 mmHg 86%
    06:00 +11°C° 0 mm 1 mps 614 mmHg 83%
    07:00 +13°C° 0.1 mm 1 mps 615 mmHg 75%
    08:00 +15°C° 0.1 mm 1 mps 615 mmHg 66%
    09:00 +18°C° 0.1 mm 1 mps 616 mmHg 58%
    10:00 +19°C° 0.3 mm 1 mps 616 mmHg 54%
    11:00 +18°C° 0.3 mm 2 mps 616 mmHg 51%
    12:00 +19°C° 0.3 mm 2 mps 616 mmHg 47%
    13:00 +19°C° 0.4 mm 2 mps 616 mmHg 46%
    14:00 +20°C° 0.4 mm 2 mps 616 mmHg 45%
    15:00 +20°C° 0.4 mm 2 mps 616 mmHg 44%
    16:00 +19°C° 0.7 mm 2 mps 616 mmHg 51%
    17:00 +18°C° 0.7 mm 2 mps 616 mmHg 58%
    18:00 +17°C° 0.7 mm 2 mps 615 mmHg 65%
    19:00 +15°C° 0.4 mm 2 mps 615 mmHg 71%
    20:00 +13°C° 0.4 mm 2 mps 615 mmHg 77%
    21:00 +10°C° 0.4 mm 2 mps 615 mmHg 83%
    22:00 +9°C° 0.2 mm 2 mps 615 mmHg 83%
    23:00 +9°C° 0.2 mm 2 mps 615 mmHg 84%

    28 May, Tuesday

    Time Temperature Precipitation Wind Pressure Humidity
    00:00 +9°C° 0.2 mm 2 mps 615 mmHg 85%
    01:00 +8°C° 0.2 mm 2 mps 615 mmHg 86%
    02:00 +8°C° 0.2 mm 2 mps 615 mmHg 88%
    03:00 +8°C° 0.2 mm 2 mps 615 mmHg 89%
    04:00 +8°C° 0 mm 2 mps 615 mmHg 88%
    05:00 +10°C° 0 mm 1 mps 616 mmHg 87%
    06:00 +10°C° 0 mm 1 mps 616 mmHg 86%
    07:00 +12°C° 0 mm 1 mps 617 mmHg 80%
    08:00 +14°C° 0 mm 2 mps 617 mmHg 73%
    09:00 +16°C° 0 mm 2 mps 618 mmHg 67%
    10:00 +17°C° 0.1 mm 2 mps 618 mmHg 65%
    11:00 +17°C° 0.1 mm 2 mps 618 mmHg 64%
    12:00 +18°C° 0.1 mm 2 mps 618 mmHg 62%
    13:00 +18°C° 0.4 mm 2 mps 617 mmHg 63%
    14:00 +18°C° 0.4 mm 2 mps 617 mmHg 63%
    15:00 +18°C° 0.4 mm 2 mps 617 mmHg 64%
    16:00 +18°C° 0.3 mm 3 mps 617 mmHg 68%
    17:00 +17°C° 0.3 mm 3 mps 617 mmHg 73%
    18:00 +16°C° 0.3 mm 3 mps 617 mmHg 77%
    19:00 +14°C° 0 mm 3 mps 617 mmHg 82%
    20:00 +12°C° 0 mm 3 mps 616 mmHg 86%
    21:00 +10°C° 0 mm 2 mps 616 mmHg 91%
    22:00 +10°C° 0 mm 2 mps 616 mmHg 91%
    23:00 +9°C° 0 mm 2 mps 616 mmHg 91%

    29 May, Wednesday

    Time Temperature Precipitation Wind Pressure Humidity
    00:00 +9°C° 0 mm 2 mps 616 mmHg 92%
    01:00 +8°C° 0 mm 2 mps 616 mmHg 91%
    02:00 +8°C° 0 mm 2 mps 615 mmHg 91%
    03:00 +8°C° 0 mm 2 mps 615 mmHg 90%
    04:00 +8°C° 0 mm 2 mps 616 mmHg 89%
    05:00 +9°C° 0 mm 2 mps 616 mmHg 87%
    06:00 +10°C° 0 mm 2 mps 616 mmHg 85%
    07:00 +13°C° 0 mm 2 mps 617 mmHg 75%
    08:00 +14°C° 0 mm 2 mps 617 mmHg 65%
    09:00 +16°C° 0 mm 2 mps 618 mmHg 54%
    10:00 +18°C° 0 mm 2 mps 618 mmHg 53%
    11:00 +19°C° 0 mm 2 mps 618 mmHg 51%
    12:00 +20°C° 0 mm 2 mps 618 mmHg 49%
    13:00 +20°C° 0 mm 2 mps 618 mmHg 50%
    14:00 +20°C° 0 mm 2 mps 617 mmHg 52%
    15:00 +20°C° 0 mm 2 mps 617 mmHg 53%
    16:00 +20°C° 0 mm 2 mps 617 mmHg 59%
    17:00 +19°C° 0 mm 2 mps 616 mmHg 65%
    18:00 +18°C° 0 mm 2 mps 616 mmHg 71%
    19:00 +16°C° 0 mm 2 mps 616 mmHg 78%
    20:00 +14°C° 0 mm 2 mps 615 mmHg 84%
    21:00 +12°C° 0 mm 2 mps 615 mmHg 91%
    22:00 +10°C° 0 mm 2 mps 615 mmHg 91%
    23:00 +10°C° 0 mm 2 mps 615 mmHg 91%
    Show more